"Period start","avg(HW err(1)/warn(2) (#))","avg(Visibility (m))","avg(Weather code (#))","avg(Precip intensity (mm/h))","min(HW err(1)/warn(2) (#))","max(HW err(1)/warn(2) (#))","std(HW err(1)/warn(2) (#))","med(HW err(1)/warn(2) (#))","min(Visibility (m))","max(Visibility (m))","std(Visibility (m))","med(Visibility (m))","min(Weather code (#))","max(Weather code (#))","std(Weather code (#))","med(Weather code (#))","min(Precip intensity (mm/h))","max(Precip intensity (mm/h))","std(Precip intensity (mm/h))","med(Precip intensity (mm/h))"
2013-08-02 00:00:00,2,47883,0,0.00,2,2,0,2,43093,50000,2561,49346,0,0,0,0,0.00,0.00,0.00,0.00
2013-08-02 00:10:00,2,47771,0,0.00,2,2,0,2,37867,50000,4068,50000,0,0,0,0,0.00,0.00,0.00,0.00
2013-08-02 00:20:00,2,45385,0,0.00,2,2,0,2,30877,50000,5722,46416,0,0,0,0,0.00,0.00,0.00,0.00
2013-08-02 00:30:00,2,46825,0,0.00,2,2,0,2,39730,50000,3874,49214,0,0,0,0,0.00,0.00,0.00,0.00
2013-08-02 00:40:00,2,48247,0,0.00,2,2,0,2,36864,50000,3975,50000,0,0,0,0,0.00,0.00,0.00,0.00
2013-08-02 00:50:00,2,47424,0,0.00,2,2,0,2,41028,50000,3677,50000,0,0,0,0,0.00,0.00,0.00,0.00
2013-08-02 01:00:00,2,46680,0,0.00,2,2,0,2,32939,50000,5160,48635,0,0,0,0,0.00,0.00,0.00,0.00
2013-08-02 01:10:00,2,37093,0,0.00,2,2,0,2,27840,50000,6809,37655,0,0,0,0,0.00,0.00,0.00,0.00
2013-08-02 01:20:00,2,47550,0,0.00,2,2,0,2,39729,50000,3280,48892,0,0,0,0,0.00,0.00,0.00,0.00
2013-08-02 01:30:00,2,44858,0,0.00,2,2,0,2,39804,50000,4285,42540,0,0,0,0,0.00,0.00,0.00,0.00
2013-08-02 01:40:00,2,46939,0,0.00,2,2,0,2,39435,50000,3427,47618,0,0,0,0,0.00,0.00,0.00,0.00
2013-08-02 01:50:00,2,36385,0,0.00,2,2,0,2,7908,50000,15826,44248,0,0,0,0,0.00,0.00,0.00,0.00
2013-08-02 02:00:00,2,39544,0,0.00,2,2,0,2,24642,50000,8963,39332,0,0,0,0,0.00,0.00,0.00,0.00
2013-08-02 02:10:00,2,46163,0,0.00,2,2,0,2,38859,50000,4787,50000,0,0,0,0,0.00,0.00,0.00,0.00
2013-08-02 02:20:00,2,44068,0,0.00,2,2,0,2,34404,50000,5043,44612,0,0,0,0,0.00,0.00,0.00,0.00
2013-08-02 02:30:00,2,43631,0,0.00,2,2,0,2,22218,50000,8415,47528,0,0,0,0,0.00,0.00,0.00,0.00
2013-08-02 02:40:00,2,45967,0,0.00,2,2,0,2,35834,50000,5533,50000,0,0,0,0,0.00,0.00,0.00,0.00
2013-08-02 02:50:00,2,47423,0,0.00,2,2,0,2,38078,50000,4278,49907,0,0,0,0,0.00,0.00,0.00,0.00
2013-08-02 03:00:00,2,45252,0,0.00,2,2,0,2,31399,50000,5426,46144,0,0,0,0,0.00,0.00,0.00,0.00
2013-08-02 03:10:00,2,43392,0,0.00,2,2,0,2,33164,50000,6178,44916,0,0,0,0,0.00,0.00,0.00,0.00
2013-08-02 03:20:00,2,46375,0,0.00,2,2,0,2,37107,50000,4158,47640,0,0,0,0,0.00,0.00,0.00,0.00
2013-08-02 03:30:00,2,46448,0,0.00,2,2,0,2,38296,50000,4337,49305,0,0,0,0,0.00,0.00,0.00,0.00
2013-08-02 03:40:00,2,47132,0,0.00,2,2,0,2,41063,50000,3675,50000,0,0,0,0,0.00,0.00,0.00,0.00
2013-08-02 03:50:00,2,45633,0,0.00,2,2,0,2,32669,50000,5683,47851,0,0,0,0,0.00,0.00,0.00,0.00
2013-08-02 04:00:00,2,46808,0,0.00,2,2,0,2,39456,50000,4000,48770,0,0,0,0,0.00,0.00,0.00,0.00
2013-08-02 04:10:00,2,46182,0,0.00,2,2,0,2,31330,50000,6378,50000,0,0,0,0,0.00,0.00,0.00,0.00
2013-08-02 04:20:00,2,45725,0,0.00,2,2,0,2,41436,50000,2787,45109,0,0,0,0,0.00,0.00,0.00,0.00
2013-08-02 04:30:00,2,46989,0,0.00,2,2,0,2,38285,50000,4427,50000,0,0,0,0,0.00,0.00,0.00,0.00
2013-08-02 04:40:00,2,45773,0,0.00,2,2,0,2,35856,50000,4802,47584,0,0,0,0,0.00,0.00,0.00,0.00
2013-08-02 04:50:00,2,48999,0,0.00,2,2,0,2,45445,50000,1662,50000,0,0,0,0,0.00,0.00,0.00,0.00
2013-08-02 05:00:00,2,49026,0,0.00,2,2,0,2,43897,50000,1819,50000,0,0,0,0,0.00,0.00,0.00,0.00
2013-08-02 05:10:00,2,47435,0,0.00,2,2,0,2,35705,50000,4265,49732,0,0,0,0,0.00,0.00,0.00,0.00
2013-08-02 05:20:00,2,47144,0,0.00,2,2,0,2,36670,50000,4214,49348,0,0,0,0,0.00,0.00,0.00,0.00
2013-08-02 05:30:00,2,44171,0,0.00,2,2,0,2,36731,50000,4701,44320,0,0,0,0,0.00,0.00,0.00,0.00
2013-08-02 05:40:00,2,44366,0,0.00,2,2,0,2,36629,50000,5389,45284,0,0,0,0,0.00,0.00,0.00,0.00
2013-08-02 05:50:00,2,48547,0,0.00,2,2,0,2,41400,50000,2662,50000,0,0,0,0,0.00,0.00,0.00,0.00
2013-08-02 06:00:00,2,46498,0,0.00,2,2,0,2,39350,50000,3851,48438,0,0,0,0,0.00,0.00,0.00,0.00
2013-08-02 06:10:00,2,48642,0,0.00,2,2,0,2,41973,50000,2606,50000,0,0,0,0,0.00,0.00,0.00,0.00
2013-08-02 06:20:00,2,47408,0,0.00,2,2,0,2,36101,50000,4114,49288,0,0,0,0,0.00,0.00,0.00,0.00
2013-08-02 06:30:00,2,45506,0,0.00,2,2,0,2,38937,50000,4571,46948,0,0,0,0,0.00,0.00,0.00,0.00
2013-08-02 06:40:00,2,47587,0,0.00,2,2,0,2,41669,50000,2770,48490,0,0,0,0,0.00,0.00,0.00,0.00
2013-08-02 06:50:00,2,48533,0,0.00,2,2,0,2,41950,50000,2563,50000,0,0,0,0,0.00,0.00,0.00,0.00
2013-08-02 07:00:00,2,43242,0,0.00,2,2,0,2,33229,50000,5747,44534,0,0,0,0,0.00,0.00,0.00,0.00
2013-08-02 07:10:00,2,46230,0,0.00,2,2,0,2,38095,50000,4451,48918,0,0,0,0,0.00,0.00,0.00,0.00
2013-08-02 07:20:00,2,38362,0,0.00,2,2,0,2,10816,50000,14224,43359,0,0,0,0,0.00,0.00,0.00,0.00
2013-08-02 07:30:00,2,34770,0,0.00,2,2,0,2,12093,48102,11226,38016,0,0,0,0,0.00,0.00,0.00,0.00
2013-08-02 07:40:00,2,49158,0,0.00,2,2,0,2,43392,50000,1971,50000,0,0,0,0,0.00,0.00,0.00,0.00
2013-08-02 07:50:00,2,49284,0,0.00,2,2,0,2,47162,50000,1114,50000,0,0,0,0,0.00,0.00,0.00,0.00
2013-08-02 08:00:00,2,49430,0,0.00,2,2,0,2,44768,50000,1560,50000,0,0,0,0,0.00,0.00,0.00,0.00
2013-08-02 08:10:00,2,49923,0,0.00,2,2,0,2,49233,50000,230,50000,0,0,0,0,0.00,0.00,0.00,0.00
2013-08-02 08:20:00,2,47081,0,0.00,2,2,0,2,40383,50000,3918,50000,0,0,0,0,0.00,0.00,0.00,0.00
2013-08-02 08:30:00,2,49239,0,0.00,2,2,0,2,45938,50000,1275,50000,0,0,0,0,0.00,0.00,0.00,0.00
2013-08-02 08:40:00,2,49092,0,0.00,2,2,0,2,43675,50000,1943,50000,0,0,0,0,0.00,0.00,0.00,0.00
2013-08-02 08:50:00,2,47038,0,0.00,2,2,0,2,37316,50000,4798,49632,0,0,0,0,0.00,0.00,0.00,0.00
2013-08-02 09:00:00,2,49027,0,0.00,2,2,0,2,43473,50000,1956,50000,0,0,0,0,0.00,0.00,0.00,0.00
2013-08-02 09:10:00,2,49419,0,0.00,2,2,0,2,46522,50000,1120,50000,0,0,0,0,0.00,0.00,0.00,0.00
2013-08-02 09:20:00,2,48474,0,0.00,2,2,0,2,42513,50000,2176,49036,0,0,0,0,0.00,0.00,0.00,0.00
2013-08-02 09:30:00,2,49213,0,0.00,2,2,0,2,45289,50000,1612,50000,0,0,0,0,0.00,0.00,0.00,0.00
2013-08-02 09:40:00,2,48117,0,0.00,2,2,0,2,36343,50000,3980,49564,0,0,0,0,0.00,0.00,0.00,0.00
2013-08-02 09:50:00,2,46712,0,0.00,2,2,0,2,34295,50000,4553,47550,0,0,0,0,0.00,0.00,0.00,0.00
2013-08-02 10:00:00,2,45287,0,0.00,2,2,0,2,34514,50000,5547,47644,0,0,0,0,0.00,0.00,0.00,0.00
2013-08-02 10:10:00,2,48898,0,0.00,2,2,0,2,45617,50000,1519,50000,0,0,0,0,0.00,0.00,0.00,0.00
2013-08-02 10:20:00,2,48899,0,0.00,2,2,0,2,44438,50000,1735,49744,0,0,0,0,0.00,0.00,0.00,0.00
2013-08-02 10:30:00,2,49204,0,0.00,2,2,0,2,46181,50000,1411,50000,0,0,0,0,0.00,0.00,0.00,0.00
2013-08-02 10:40:00,2,49178,0,0.00,2,2,0,2,45207,50000,1524,50000,0,0,0,0,0.00,0.00,0.00,0.00
2013-08-02 10:50:00,2,49415,0,0.00,2,2,0,2,44146,50000,1756,50000,0,0,0,0,0.00,0.00,0.00,0.00
2013-08-02 11:00:00,2,49751,0,0.00,2,2,0,2,48527,50000,482,50000,0,0,0,0,0.00,0.00,0.00,0.00
2013-08-02 11:10:00,2,49312,0,0.00,2,2,0,2,44848,50000,1575,50000,0,0,0,0,0.00,0.00,0.00,0.00
2013-08-02 11:20:00,2,48712,0,0.00,2,2,0,2,43691,50000,2241,50000,0,0,0,0,0.00,0.00,0.00,0.00
2013-08-02 11:30:00,2,49894,0,0.00,2,2,0,2,48975,50000,307,50000,0,0,0,0,0.00,0.00,0.00,0.00
2013-08-02 11:40:00,2,49737,0,0.00,2,2,0,2,47872,50000,639,50000,0,0,0,0,0.00,0.00,0.00,0.00
2013-08-02 11:50:00,2,50000,0,0.00,2,2,0,2,50000,50000,0,50000,0,0,0,0,0.00,0.00,0.00,0.00
2013-08-02 12:00:00,2,50000,0,0.00,2,2,0,2,50000,50000,0,50000,0,0,0,0,0.00,0.00,0.00,0.00
2013-08-02 12:10:00,2,50000,0,0.00,2,2,0,2,50000,50000,0,50000,0,0,0,0,0.00,0.00,0.00,0.00
2013-08-02 12:20:00,2,50000,0,0.00,2,2,0,2,50000,50000,0,50000,0,0,0,0,0.00,0.00,0.00,0.00
2013-08-02 12:30:00,2,50000,0,0.00,2,2,0,2,50000,50000,0,50000,0,0,0,0,0.00,0.00,0.00,0.00
2013-08-02 12:40:00,2,49784,0,0.00,2,2,0,2,48164,50000,549,50000,0,0,0,0,0.00,0.00,0.00,0.00
2013-08-02 12:50:00,2,50000,0,0.00,2,2,0,2,50000,50000,0,50000,0,0,0,0,0.00,0.00,0.00,0.00
2013-08-02 13:00:00,2,50000,0,0.00,2,2,0,2,50000,50000,0,50000,0,0,0,0,0.00,0.00,0.00,0.00
2013-08-02 13:10:00,2,50000,0,0.00,2,2,0,2,50000,50000,0,50000,0,0,0,0,0.00,0.00,0.00,0.00
2013-08-02 13:20:00,2,50000,0,0.00,2,2,0,2,50000,50000,0,50000,0,0,0,0,0.00,0.00,0.00,0.00
2013-08-02 13:30:00,2,50000,0,0.00,2,2,0,2,50000,50000,0,50000,0,0,0,0,0.00,0.00,0.00,0.00
2013-08-02 13:40:00,2,50000,0,0.00,2,2,0,2,50000,50000,0,50000,0,0,0,0,0.00,0.00,0.00,0.00
2013-08-02 13:50:00,2,50000,0,0.00,2,2,0,2,50000,50000,0,50000,0,0,0,0,0.00,0.00,0.00,0.00
2013-08-02 14:00:00,2,50000,0,0.00,2,2,0,2,50000,50000,0,50000,0,0,0,0,0.00,0.00,0.00,0.00
2013-08-02 14:10:00,2,50000,0,0.00,2,2,0,2,50000,50000,0,50000,0,0,0,0,0.00,0.00,0.00,0.00
2013-08-02 14:20:00,2,50000,0,0.00,2,2,0,2,50000,50000,0,50000,0,0,0,0,0.00,0.00,0.00,0.00
2013-08-02 14:30:00,2,50000,0,0.00,2,2,0,2,50000,50000,0,50000,0,0,0,0,0.00,0.00,0.00,0.00
2013-08-02 14:40:00,2,50000,0,0.00,2,2,0,2,50000,50000,0,50000,0,0,0,0,0.00,0.00,0.00,0.00
2013-08-02 14:50:00,2,50000,0,0.00,2,2,0,2,50000,50000,0,50000,0,0,0,0,0.00,0.00,0.00,0.00
2013-08-02 15:00:00,2,50000,0,0.00,2,2,0,2,50000,50000,0,50000,0,0,0,0,0.00,0.00,0.00,0.00
2013-08-02 15:10:00,2,50000,0,0.00,2,2,0,2,50000,50000,0,50000,0,0,0,0,0.00,0.00,0.00,0.00
2013-08-02 15:20:00,2,50000,0,0.00,0,2,1,2,50000,50000,0,50000,0,0,0,0,0.00,0.00,0.00,0.00
2013-08-02 15:30:00,2,50000,0,0.00,2,2,0,2,50000,50000,0,50000,0,0,0,0,0.00,0.00,0.00,0.00
2013-08-02 15:40:00,2,50000,0,0.00,2,2,0,2,50000,50000,0,50000,0,0,0,0,0.00,0.00,0.00,0.00
2013-08-02 15:50:00,2,50000,0,0.00,2,2,0,2,50000,50000,0,50000,0,0,0,0,0.00,0.00,0.00,0.00
2013-08-02 16:00:00,2,50000,0,0.00,2,2,0,2,50000,50000,0,50000,0,0,0,0,0.00,0.00,0.00,0.00
2013-08-02 16:10:00,2,50000,0,0.00,2,2,0,2,50000,50000,0,50000,0,0,0,0,0.00,0.00,0.00,0.00
2013-08-02 16:20:00,2,50000,0,0.00,2,2,0,2,50000,50000,0,50000,0,0,0,0,0.00,0.00,0.00,0.00
2013-08-02 16:30:00,2,50000,0,0.00,2,2,0,2,50000,50000,0,50000,0,0,0,0,0.00,0.00,0.00,0.00
2013-08-02 16:40:00,2,50000,0,0.00,2,2,0,2,50000,50000,0,50000,0,0,0,0,0.00,0.00,0.00,0.00
2013-08-02 16:50:00,2,50000,0,0.00,2,2,0,2,50000,50000,0,50000,0,0,0,0,0.00,0.00,0.00,0.00
2013-08-02 17:00:00,2,50000,0,0.00,2,2,0,2,50000,50000,0,50000,0,0,0,0,0.00,0.00,0.00,0.00
2013-08-02 17:10:00,2,50000,0,0.00,2,2,0,2,50000,50000,0,50000,0,0,0,0,0.00,0.00,0.00,0.00
2013-08-02 17:20:00,2,50000,0,0.00,2,2,0,2,50000,50000,0,50000,0,0,0,0,0.00,0.00,0.00,0.00
2013-08-02 17:30:00,2,50000,0,0.00,2,2,0,2,50000,50000,0,50000,0,0,0,0,0.00,0.00,0.00,0.00
2013-08-02 17:40:00,2,44599,0,0.00,2,2,0,2,36377,50000,5740,46914,0,0,0,0,0.00,0.00,0.00,0.00
2013-08-02 17:50:00,2,49817,0,0.00,2,2,0,2,48786,50000,390,50000,0,0,0,0,0.00,0.00,0.00,0.00
2013-08-02 18:00:00,2,50000,0,0.00,2,2,0,2,50000,50000,0,50000,0,0,0,0,0.00,0.00,0.00,0.00
2013-08-02 18:10:00,2,50000,0,0.00,2,2,0,2,50000,50000,0,50000,0,0,0,0,0.00,0.00,0.00,0.00
2013-08-02 18:20:00,2,50000,0,0.00,2,2,0,2,50000,50000,0,50000,0,0,0,0,0.00,0.00,0.00,0.00
2013-08-02 18:30:00,2,50000,0,0.00,2,2,0,2,50000,50000,0,50000,0,0,0,0,0.00,0.00,0.00,0.00
2013-08-02 18:40:00,2,50000,0,0.00,2,2,0,2,50000,50000,0,50000,0,0,0,0,0.00,0.00,0.00,0.00
2013-08-02 18:50:00,2,49840,0,0.00,2,2,0,2,48403,50000,479,50000,0,0,0,0,0.00,0.00,0.00,0.00
2013-08-02 19:00:00,2,50000,0,0.00,2,2,0,2,50000,50000,0,50000,0,0,0,0,0.00,0.00,0.00,0.00
2013-08-02 19:10:00,2,49808,0,0.00,2,2,0,2,48951,50000,359,50000,0,0,0,0,0.00,0.00,0.00,0.00
2013-08-02 19:20:00,2,50000,0,0.00,2,2,0,2,50000,50000,0,50000,0,0,0,0,0.00,0.00,0.00,0.00
2013-08-02 19:30:00,2,50000,0,0.00,2,2,0,2,50000,50000,0,50000,0,0,0,0,0.00,0.00,0.00,0.00
2013-08-02 19:40:00,2,49563,0,0.00,2,2,0,2,47400,50000,894,50000,0,0,0,0,0.00,0.00,0.00,0.00
2013-08-02 19:50:00,2,50000,0,0.00,2,2,0,2,50000,50000,0,50000,0,0,0,0,0.00,0.00,0.00,0.00
2013-08-02 20:00:00,2,50000,0,0.00,2,2,0,2,50000,50000,0,50000,0,0,0,0,0.00,0.00,0.00,0.00
2013-08-02 20:10:00,2,50000,0,0.00,2,2,0,2,50000,50000,0,50000,0,0,0,0,0.00,0.00,0.00,0.00
2013-08-02 20:20:00,2,50000,0,0.00,2,2,0,2,50000,50000,0,50000,0,0,0,0,0.00,0.00,0.00,0.00
2013-08-02 20:30:00,2,50000,0,0.00,2,2,0,2,50000,50000,0,50000,0,0,0,0,0.00,0.00,0.00,0.00
2013-08-02 20:40:00,2,50000,0,0.00,2,2,0,2,50000,50000,0,50000,0,0,0,0,0.00,0.00,0.00,0.00
2013-08-02 20:50:00,2,49697,0,0.00,2,2,0,2,47214,50000,831,50000,0,0,0,0,0.00,0.00,0.00,0.00
2013-08-02 21:00:00,2,50000,0,0.00,2,2,0,2,50000,50000,0,50000,0,0,0,0,0.00,0.00,0.00,0.00
2013-08-02 21:10:00,2,49819,0,0.00,2,2,0,2,48196,50000,541,50000,0,0,0,0,0.00,0.00,0.00,0.00
2013-08-02 21:20:00,2,49717,0,0.00,2,2,0,2,47421,50000,769,50000,0,0,0,0,0.00,0.00,0.00,0.00
2013-08-02 21:30:00,2,50000,0,0.00,2,2,0,2,50000,50000,0,50000,0,0,0,0,0.00,0.00,0.00,0.00
2013-08-02 21:40:00,2,50000,0,0.00,2,2,0,2,50000,50000,0,50000,0,0,0,0,0.00,0.00,0.00,0.00
2013-08-02 21:50:00,2,49360,0,0.00,2,2,0,2,46274,50000,1301,50000,0,0,0,0,0.00,0.00,0.00,0.00
2013-08-02 22:00:00,2,50000,0,0.00,2,2,0,2,50000,50000,0,50000,0,0,0,0,0.00,0.00,0.00,0.00
2013-08-02 22:10:00,2,49756,0,0.00,2,2,0,2,47563,50000,731,50000,0,0,0,0,0.00,0.00,0.00,0.00
2013-08-02 22:20:00,2,48518,0,0.00,2,2,0,2,44538,50000,1817,49397,0,0,0,0,0.00,0.00,0.00,0.00
2013-08-02 22:30:00,2,48662,0,0.00,2,2,0,2,46279,50000,1517,49522,0,0,0,0,0.00,0.00,0.00,0.00
2013-08-02 22:40:00,2,49954,0,0.00,2,2,0,2,49535,50000,140,50000,0,0,0,0,0.00,0.00,0.00,0.00
2013-08-02 22:50:00,2,49932,0,0.00,2,2,0,2,49322,50000,203,50000,0,0,0,0,0.00,0.00,0.00,0.00
2013-08-02 23:00:00,2,49281,0,0.00,2,2,0,2,45286,50000,1392,50000,0,0,0,0,0.00,0.00,0.00,0.00
2013-08-02 23:10:00,2,45686,0,0.00,2,2,0,2,29110,50000,8104,50000,0,0,0,0,0.00,0.00,0.00,0.00
2013-08-02 23:20:00,2,46175,0,0.00,2,2,0,2,37846,50000,3831,46108,0,0,0,0,0.00,0.00,0.00,0.00
2013-08-02 23:30:00,2,41884,0,0.00,2,2,0,2,17814,50000,11813,49242,0,0,0,0,0.00,0.00,0.00,0.00
2013-08-02 23:40:00,2,47624,0,0.00,2,2,0,2,43597,50000,2923,50000,0,0,0,0,0.00,0.00,0.00,0.00
2013-08-02 23:50:00,2,38900,0,0.00,2,2,0,2,7456,50000,13068,43551,0,0,0,0,0.00,0.00,0.00,0.00
